User: anonymous   Login
Location: Unspecified
(0.0000°N, 0.0000°E)
Time: 08:47:16
(UTC+00:00)
Language:

DOVE 4 - Orbit

View from above orbital plane
View from above orbital plane
View from above satellite
View from above satellite

Ground track
Ground track

The orbit data is extracted from the following two-line orbital elements,

1 39430U 13066Q   19085.14420314  .00000129  00000-0  32182-4 0  9999
2 39430  97.7368  47.3166 0151503 160.3019 200.4128 14.59210196284271
Epoch (UTC): 26 March 2019 03:27:39
Eccentricity: 0.0151503
inclination: 97.7368°
perigee height: 588 km
apogee height: 803 km
right ascension of ascending node: 47.3166°
argument of perigee: 160.3019°
revolutions per day: 14.59210196
mean anomaly at epoch: 200.4128°
orbit number at epoch: 28427

The dashed part of the orbit path shows where the satellite is in the earth's shadow,  

DLR